User: anonymous   Login
Location: Unspecified
(42.1900°N, 71.3291°W)
Time: 03:37:48
(UTC-04:00)
Language:

Resurs 1-4 Rocket - Orbit

View from above orbital plane
View from above orbital plane
View from above satellite
View from above satellite

Ground track
Ground track

The orbit data is extracted from the following two-line orbital elements,

1 25400U 98043G   15145.86126891  .00000038  00000-0  33753-4 0  9998
2 25400 098.3823 111.7072 0009584 349.8642 010.2343 14.25329759877751
Epoch (UTC): 25 May 2015 20:40:13
Eccentricity: 0.0009584
inclination: 98.3823°
perigee height: 800 km
apogee height: 814 km
right ascension of ascending node: 111.7072°
argument of perigee: 349.8642°
revolutions per day: 14.25329759
mean anomaly at epoch: 10.2343°
orbit number at epoch: 87775

The dashed part of the orbit path shows where the satellite is in the earth's shadow,  

DLR